[[{"header":{"parameterUnit":"m.s-1","parameterCategory":1,"la1":30.2991,"la2":30.254,"lo1":-89.0895,"lo2":-89.0444,"dy":0.0017,"dx":0.0017,"nx":28,"ny":28,"refTime":"2025-07-18T09:00:00:Z","depth":0,"parameterNumber":2,"parameterNumberName":"U-component_of_WINDS"},"data":[0,0,0,0,0,0,0,0,0,0,0,0,0,0,0,0,0,0,0,0,0,0,0,0,0,0,0,0,0,0,0,0,0,0,0,0,0,0,0,0,0,0,0,0,0,0,0,0,0,0,0,0,0,0,0,0,0,0,1.2166,1.2168,0,1.2313,1.2315,1.2316,1.236,1.2359,1.2358,1.2357,1.2511,1.2515,1.252,0,0,0,0,0,0,0,0,0,0,0,0,0,1.1926,1.193,1.2166,1.2168,1.217,1.2313,1.2315,1.2317,1.236,1.2359,1.2358,1.2357,1.2509,1.2515,1.2521,0,0,0,0,0,0,0,0,0,0,0,0,0,1.2047,1.1932,1.2166,1.2208,1.2214,1.2312,1.2315,1.2317,1.236,1.2359,1.2358,1.2357,1.2507,1.2514,1.2521,1.2589,0,0,1.2543,1.2547,0,0,0,0,0,0,0,0,1.204,1.2056,1.22,1.2206,1.2212,1.2317,1.2286,1.2409,1.236,1.2305,1.2357,1.2356,1.2447,1.2459,1.249,1.2596,1.2603,1.2544,1.2549,1.2552,1.2554,0,0,0,0,0,0,0,1.2032,1.205,1.2224,1.2202,1.2209,1.2221,1.2237,1.231,1.2381,1.2309,1.2313,1.2329,1.245,1.2483,1.2494,1.2605,1.2544,1.255,1.2555,1.2558,1.2776,1.2777,0,0,0,0,0,0,1.2016,1.2043,1.222,1.2229,1.2121,1.2226,1.2244,1.2284,1.238,1.2394,1.233,1.2331,1.2471,1.2485,1.2499,1.2585,1.2552,1.2558,1.2562,1.2774,1.2776,1.2778,0,0,0,0,0,0,1.2011,1.2031,1.2214,1.2137,1.2161,1.2232,1.2276,1.2288,1.232,1.2396,1.2409,1.235,1.247,1.2489,1.2566,1.2591,1.2562,1.2568,1.2773,1.2775,1.2777,1.2758,0,0,0,0,0,0,1.2004,1.2029,1.2055,1.2137,1.2165,1.2278,1.2278,1.2291,1.2332,1.2334,1.2418,1.2431,1.2471,1.2555,1.2574,1.2601,1.2574,1.2771,1.2774,1.2776,1.2756,1.2759,1.2761,0,0,0,0,0,1.1995,1.2044,1.2056,1.2077,1.2198,1.2279,1.2295,1.2339,1.2334,1.2361,1.241,1.2428,1.2585,1.2563,1.2584,1.2613,1.2769,1.2773,1.2776,1.2755,1.2758,1.2761,0,0,0,0,0,0,1.1964,1.2056,1.207,1.2147,1.2205,1.2286,1.2321,1.2341,1.2403,1.2402,1.2456,1.2474,1.2548,1.2589,1.2562,1.2684,1.2678,1.2686,1.2655,1.2659,1.2661,1.265,1.258,0,0,0,0,0,1.1966,1.2023,1.21,1.2161,1.2189,1.225,1.2287,1.2316,1.2378,1.2403,1.2458,1.2519,1.2582,1.2622,1.2685,1.2762,1.2782,1.2793,1.2795,1.2797,1.2803,1.2847,1.2854,1.2789,1.2788,1.2788,0,0,1.1971,1.2028,1.2061,1.2156,1.2204,1.2263,1.227,1.2332,1.2376,1.2413,1.2489,1.2531,1.2603,1.2681,1.2718,1.2717,1.2825,1.2801,1.2801,1.2807,1.2851,1.2858,1.2863,1.2791,1.279,1.279,0,0,1.2011,1.2059,1.2115,1.2163,1.2235,1.2276,1.2289,1.2368,1.2397,1.2474,1.2503,1.2557,1.2664,1.2714,1.2753,1.2811,1.2831,1.283,1.2843,1.2886,1.2891,1.2896,1.2917,1.2924,1.2836,1.2836,1.2836,0,1.2008,1.2097,1.2142,1.2202,1.2243,1.2278,1.2336,1.238,1.247,1.2498,1.2495,1.2631,1.2682,1.2772,1.2786,1.2816,1.2834,1.2821,1.2886,1.2891,1.2897,1.2918,1.2926,1.2836,1.2836,1.2836,1.2836,0,1.209,1.2151,1.2188,1.2272,1.2318,1.2377,1.2431,1.2472,1.2497,1.2538,1.2617,1.2678,1.2754,1.2778,1.2803,1.2872,1.2869,1.2875,1.287,1.2902,1.2922,1.2931,1.2835,1.2835,1.2835,1.2835,0,0,1.2115,1.2223,1.2236,1.2275,1.2357,1.2406,1.2466,1.2539,1.2574,1.2634,1.2687,1.2777,1.2784,1.2828,1.286,1.2897,1.294,1.29,1.2902,1.2906,1.302,1.3015,1.3024,1.2953,1.2955,1.2956,1.3014,0,1.2165,1.2274,1.2316,1.2405,1.2462,1.2496,1.2549,1.2606,1.2646,1.2701,1.2745,1.2808,1.2812,1.2839,1.2878,1.2927,1.2964,1.2923,1.3004,1.3006,1.2986,1.3034,1.3029,1.3081,1.3023,1.3024,1.3025,0,1.2239,1.2299,1.2393,1.2468,1.2494,1.2541,1.2611,1.2663,1.2729,1.2755,1.2805,1.2834,1.29,1.289,1.2982,1.2953,1.2988,1.3017,1.3021,1.3031,1.3018,1.3046,1.3099,1.3107,1.3038,1.3037,1.3036,0,1.2248,1.2353,1.2423,1.2455,1.2545,1.2577,1.2616,1.268,1.2721,1.2783,1.281,1.2879,1.2917,1.297,1.3018,1.3006,1.3106,1.31,1.313,1.3129,1.3151,1.3149,1.321,1.3172,1.3172,1.3172,1.3172,0,1.23,1.2357,1.2428,1.2471,1.2536,1.2584,1.2647,1.2688,1.2745,1.2798,1.2831,1.288,1.294,1.2996,1.3034,1.3105,1.3122,1.3145,1.3155,1.3143,1.314,1.3168,1.3166,1.3174,1.3174,1.3173,1.3173,0,1.2322,1.2372,1.245,1.2528,1.2549,1.2594,1.2661,1.2705,1.2746,1.2812,1.283,1.2895,1.2964,1.3016,1.3105,1.313,1.3206,1.3216,1.3183,1.3188,1.3216,1.3213,1.3298,1.3312,1.3264,1.3264,1.3265,0,1.2352,1.2396,1.2479,1.2516,1.2554,1.2614,1.2656,1.2705,1.2748,1.2826,1.286,1.2931,1.299,1.3098,1.3154,1.3222,1.3234,1.326,1.3245,1.3232,1.3236,1.3233,1.3238,1.3262,1.3262,1.3262,1.3262,0,1.2401,1.2423,1.2482,1.2549,1.2598,1.2654,1.271,1.2739,1.2799,1.2845,1.2915,1.2961,1.3051,1.3122,1.3196,1.3237,1.326,1.3266,1.3277,1.3266,1.3245,1.3257,1.3189,1.3264,1.3264,1.3264,1.3264,1.3264,1.2429,1.247,1.2534,1.2598,1.2646,1.2698,1.2742,1.2789,1.2847,1.2924,1.295,1.3023,1.3088,1.3189,1.3231,1.3289,1.329,1.3306,1.331,1.3313,1.3312,1.3235,1.3303,1.3303,1.3303,1.3303,1.3303,0,1.248,1.2523,1.2581,1.2659,1.271,1.2725,1.2789,1.283,1.2893,1.2951,1.3008,1.3089,1.3157,1.3218,1.3289,1.3324,1.3336,1.3341,1.3339,1.3348,1.3307,1.3291,1.333,1.333,1.333,1.3329,1.3329,1.3329,1.2512,1.2583,1.2613,1.2707,1.275,1.282,1.2855,1.2903,1.295,1.3038,1.3094,1.3133,1.3193,1.3268,1.3332,1.3348,1.3373,1.3375,1.3394,1.3355,1.3351,1.3348,1.3333,1.338,1.338,1.343,1.3431,1.3431]},{"header":{"parameterUnit":"m.s-1","parameterCategory":1,"la1":30.2991,"la2":30.254,"lo1":-89.0895,"lo2":-89.0444,"dy":0.0017,"dx":0.0017,"nx":28,"ny":28,"refTime":"2025-07-18T09:00:00:Z","depth":0,"parameterNumber":3,"parameterNumberName":"V-component_of_WINDS"},"data":[0,0,0,0,0,0,0,0,0,0,0,0,0,0,0,0,0,0,0,0,0,0,0,0,0,0,0,0,0,0,0,0,0,0,0,0,0,0,0,0,0,0,0,0,0,0,0,0,0,0,0,0,0,0,0,0,0,0,2.4149,2.4148,0,2.4092,2.4092,2.4091,2.4021,2.402,2.4019,2.4018,2.3959,2.3958,2.3958,0,0,0,0,0,0,0,0,0,0,0,0,0,2.4195,2.4194,2.4149,2.4148,2.4147,2.4092,2.4092,2.4091,2.4021,2.402,2.4019,2.4017,2.3959,2.3958,2.3958,0,0,0,0,0,0,0,0,0,0,0,0,0,2.416,2.4194,2.4149,2.4106,2.4101,2.4093,2.4092,2.4091,2.4021,2.402,2.4018,2.4017,2.3959,2.3958,2.3958,2.3986,0,0,2.3955,2.3955,0,0,0,0,0,0,0,0,2.4162,2.4159,2.4113,2.4109,2.4104,2.4062,2.4086,2.4055,2.4022,2.4052,2.4018,2.4016,2.3994,2.3991,2.3984,2.3983,2.398,2.3955,2.3955,2.3954,2.3954,0,0,0,0,0,0,0,2.4165,2.4161,2.4126,2.4112,2.4107,2.4089,2.4082,2.408,2.4033,2.4049,2.4044,2.4038,2.3992,2.3985,2.3982,2.398,2.3955,2.3954,2.3954,2.3953,2.3999,2.4001,0,0,0,0,0,0,2.4174,2.4163,2.4128,2.4125,2.413,2.409,2.4082,2.4077,2.4033,2.4025,2.404,2.4035,2.3987,2.3983,2.3979,2.401,2.3954,2.3953,2.3953,2.3998,2.4,2.4002,0,0,0,0,0,0,2.4175,2.4171,2.413,2.4142,2.4136,2.4091,2.4086,2.4077,2.407,2.4026,2.4017,2.4041,2.3985,2.398,2.3985,2.4007,2.3953,2.3952,2.3996,2.3998,2.4001,2.407,0,0,0,0,0,0,2.4177,2.4172,2.4183,2.4143,2.4135,2.4137,2.4087,2.4077,2.4069,2.4062,2.4025,2.4017,2.3984,2.3986,2.3984,2.4004,2.3952,2.3994,2.3997,2.4,2.4066,2.4075,2.4083,0,0,0,0,0,2.4179,2.4204,2.4184,2.418,2.4148,2.4139,2.4134,2.4096,2.4071,2.4081,2.4053,2.4018,2.4005,2.3987,2.3984,2.4005,2.3992,2.3996,2.4,2.4062,2.4073,2.4083,0,0,0,0,0,0,2.4247,2.4198,2.4175,2.4188,2.4168,2.4127,2.4138,2.4108,2.4094,2.4089,2.4041,2.4033,2.4044,2.4024,2.4006,2.403,2.3993,2.3997,2.4042,2.4052,2.406,2.4065,2.3951,0,0,0,0,0,2.4264,2.4261,2.4218,2.4234,2.4225,2.4184,2.4178,2.4151,2.4127,2.4118,2.409,2.4069,2.406,2.4055,2.4044,2.4063,2.4054,2.4075,2.4084,2.4091,2.4094,2.4103,2.4113,2.4014,2.4014,2.4014,0,0,2.4298,2.4271,2.4272,2.4247,2.4228,2.4226,2.4177,2.4177,2.4175,2.4118,2.4121,2.41,2.4073,2.4085,2.4088,2.4069,2.412,2.4096,2.4102,2.4101,2.4108,2.4118,2.4126,2.4017,2.4016,2.4016,0,0,2.436,2.4339,2.435,2.4333,2.4305,2.4277,2.428,2.4243,2.4227,2.4229,2.4187,2.4183,2.4168,2.4151,2.414,2.4196,2.4164,2.4194,2.4238,2.4247,2.4255,2.4261,2.4282,2.4289,2.4197,2.4198,2.4198,0,2.4406,2.4401,2.436,2.4362,2.4353,2.4302,2.4313,2.4298,2.4268,2.4262,2.4241,2.4222,2.42,2.4207,2.4221,2.4214,2.4216,2.4198,2.4257,2.4263,2.4269,2.4288,2.4295,2.4201,2.4201,2.4201,2.42,0,2.4459,2.4457,2.4469,2.4442,2.4434,2.4441,2.4401,2.4397,2.437,2.4345,2.4347,2.432,2.4302,2.4302,2.4275,2.4306,2.4294,2.4266,2.4228,2.4283,2.43,2.4306,2.4207,2.4205,2.4204,2.4203,0,0,2.4562,2.4513,2.4518,2.4505,2.4471,2.4468,2.4473,2.4456,2.4455,2.4436,2.4438,2.4427,2.4401,2.4389,2.4359,2.4368,2.4414,2.4338,2.4336,2.4353,2.4446,2.4468,2.4477,2.4393,2.4394,2.4395,2.4449,0,2.4618,2.4623,2.4586,2.4601,2.4599,2.4551,2.4555,2.4534,2.4511,2.4505,2.4478,2.4471,2.4437,2.4429,2.4435,2.4407,2.4432,2.4403,2.4394,2.4395,2.4403,2.4486,2.4509,2.4561,2.4455,2.4456,2.4457,0,2.4683,2.4668,2.4684,2.4649,2.4646,2.4651,2.4633,2.4628,2.4604,2.4586,2.4573,2.454,2.4541,2.4506,2.4508,2.4489,2.4483,2.4469,2.447,2.4468,2.4429,2.4486,2.4577,2.4585,2.4466,2.4466,2.4465,0,2.4757,2.4741,2.4748,2.4738,2.4698,2.4703,2.4686,2.466,2.4653,2.4637,2.4632,2.4617,2.4608,2.4597,2.4561,2.4538,2.4567,2.4528,2.4552,2.4554,2.4561,2.4561,2.4652,2.4557,2.4557,2.4557,2.4557,0,2.4822,2.4834,2.4781,2.4785,2.4796,2.4754,2.4766,2.4744,2.4722,2.4721,2.4679,2.4679,2.4631,2.4625,2.4597,2.4603,2.4599,2.4585,2.4577,2.4589,2.4591,2.4585,2.458,2.4559,2.4558,2.4558,2.4558,0,2.4907,2.4872,2.4876,2.4838,2.4829,2.4839,2.4806,2.4809,2.4782,2.4782,2.478,2.4739,2.473,2.4693,2.4675,2.4656,2.4672,2.4657,2.4681,2.4676,2.4702,2.47,2.4792,2.4803,2.4701,2.4702,2.4703,0,2.4951,2.4959,2.4922,2.4919,2.4904,2.4899,2.4892,2.485,2.4844,2.4818,2.4823,2.4812,2.48,2.4789,2.4758,2.4744,2.4728,2.4762,2.4726,2.4738,2.4729,2.4729,2.473,2.4769,2.4771,2.4772,2.4773,0,2.5034,2.5016,2.5007,2.4993,2.4985,2.4972,2.4955,2.4955,2.4909,2.4904,2.4896,2.4887,2.4869,2.4859,2.484,2.4822,2.479,2.4784,2.4789,2.4801,2.4815,2.4808,2.4702,2.4782,2.4781,2.478,2.478,2.478,2.51,2.5104,2.5079,2.5071,2.5055,2.5041,2.5041,2.5015,2.5008,2.4991,2.4966,2.4961,2.4937,2.4909,2.4894,2.4889,2.487,2.4877,2.4879,2.4882,2.4888,2.4816,2.4885,2.4885,2.4884,2.4884,2.4884,0,2.518,2.5162,2.5155,2.5134,2.5127,2.5098,2.5079,2.5075,2.5071,2.5051,2.5041,2.5031,2.5021,2.4989,2.4975,2.4977,2.4962,2.4975,2.4974,2.4971,2.4905,2.4902,2.4987,2.4987,2.4987,2.4987,2.4987,2.4987,2.5222,2.5228,2.5208,2.5206,2.5187,2.5182,2.5174,2.516,2.5144,2.5136,2.5127,2.5106,2.5082,2.5066,2.5055,2.5045,2.5042,2.506,2.5046,2.4985,2.4975,2.4966,2.4963,2.506,2.506,2.5113,2.5113,2.5114]}]]